Location: Shenandoah County Park
(38.9356°N, 78.4524°W)
Time: 05:31:52
(UTC-04:00)

Vanguard 1 Rocket - Pass Details

Date: 08 February 2023
Orbit: 652 x 4223 km, 34.3° (Epoch: 26 March)

Event Time Altitude Azimuth Distance (km) Brightness Sun altitude
Rises 11:23:09 0° 241° (WSW) 3,775 10.7 34.0°
Reaches altitude 10° 11:25:18 10° 237° (WSW) 3,075 10.4 34.2°
Maximum altitude 11:32:52 59° 159° (SSE) 1,964 10.6 34.6°
Drops below altitude 10° 11:47:50 10° 86° (E) 5,796 11.7 35.3°
Sets 11:53:37 0° 84° (E) 7,355 12.1 35.6°
